Weather in Rozumivka

Ukraine / Zaporizhia Region     47°45′09″N   35°08′17″E
temp.,
°C
wind,
m/s
gust,
m/s
humid.,
%
clouds,
%
prec.,
mm/h
press.,
hPa
HPBL,
m
19 january, tue
tue1923:00−15wnw249250 0.0 1019163
02:00−15wnw359372 0.0 1020170
05:00−15wnw369428 0.0 1020208
08:00−14wnw369249 0.0 1021260
11:00−12w3481100 0.0 1022535
14:00−11w4580100 0.0 1020747
17:00−13wnw2488100 0.0 1022103
20:00−14nw239167 0.1 102260
20 january, wed
wed2023:00−14nw129296 0.0 102362
02:00−15n019449 0.0 102422
05:00−16ese11951 0.0 102522
08:00−16ese12947 0.0 102639
11:00−12se228450 0.0 1027265
14:00−10se218170 0.0 1026411
17:00−13ese339267 0.0 102746
20:00−14ese339133 0.0 102766
21 january, thu
thu2123:00−14se33900 0.0 102866
02:00−13ese33880 0.0 102848
05:00−12ese34920 0.0 102781
08:00−8se489445 0.0 1028199
11:00−2sse5109285 0.0 1027496
14:00+1sse6109393 0.0 1025501
17:000sse5119498 0.0 1025351
20:000sse6139485 0.0 1024301
22 january, fri
fri2223:000s499757 0.0 1024210
02:000s5119647 0.0 1024237
05:00+2ssw5129590 0.0 1023337
08:00+2s6129695 0.0 1023295
11:00+3s6139466 0.0 1022418
14:00+4s5139164 0.0 1021471
17:00+3s61389100 0.0 1020318
20:00+3s61390100 0.0 1020339
23 january, sat
sat2323:00+3s61391100 0.0 1019338
02:00+3s61391100 0.0 1018334
05:00+4s61389100 0.0 1017333
08:00+4s61387100 0.0 1017345
11:00+5s61486100 0.0 1017418
14:00+6s61490100 0.0 1015413
17:00+6s61291100 0.1 1015282
20:00+5s51191100 0.1 1016253